User: anonymous   Login
Location: Mountain Grove
(34.0887°N, 86.6172°W)
Time: 07:18:39
(UTC+00:00)
Language:

Tsikada Rocket - Orbit

View from above orbital plane
View from above orbital plane
View from above satellite
View from above satellite

Ground track
Ground track

The orbit data is extracted from the following two-line orbital elements,

1 23466U 95002D   20273.51157057 -.00000059 +00000-0 -78334-4 0  9997
2 23466 082.9209 095.1693 0035903 095.5647 325.2466 13.74434583287919
Epoch (UTC): 29 September 2020 12:16:39
Eccentricity: 0.0035903
inclination: 82.9209°
perigee height: 957 km
apogee height: 1010 km
right ascension of ascending node: 95.1693°
argument of perigee: 95.5647°
revolutions per day: 13.74434583
mean anomaly at epoch: 325.2466°
orbit number at epoch: 28791

The dashed part of the orbit path shows where the satellite is in the earth's shadow,  

DLR